Location: Newark
(35.6799°N, 139.7636°E)
Time: 15:24:24
(UTC+00:00)

Explorer 11/Cluster Stage 4 - Pass Details

Date: 20 December 2019
Orbit: 467 x 1259 km, 28.8° (Epoch: 18 January)

Event Time Altitude Azimuth Distance (km) Brightness Sun altitude
Exits shadow 20:34:09 - 240° (WSW) 3,796 9.7 -14.3°
Reaches altitude 10° 20:36:22 10° 235° (SW) 3,119 9.3 -13.8°
Maximum altitude 20:43:50 44° 167° (SSE) 1,665 8.5 -12.4°
Drops below altitude 10° 20:51:30 10° 98° (E) 3,197 11.1 -11.0°
Sets 20:54:29 0° 92° (E) 4,115 11.8 -10.4°
